Weather in Molodezhnoe

Russia / Republic of Crimea     45°00′20″N   34°03′14″E
temp.,
°C
wind,
m/s
gust,
m/s
humid.,
%
clouds,
%
prec.,
mm/h
press.,
hPa
HPBL,
m
21 january, fri
fri2100:00+3sw815867 0.1 1013562
03:00+2sw6138211 0.1 1013285
06:00+2ssw5128725 0.0 1013252
09:00+3wsw51286100 0.1 1013362
12:00+2nw5882100 0.3 1015604
15:00+1wnw3582100 2.1 1015614
18:000ssw2287100 0.3 101661
21:00−1sw1282100 0.3 101745
22 january, sat
sat2200:00−1s2275100 0.0 101633
03:00−1s2272100 0.0 101627
06:00−2sse226999 0.0 101523
09:00−2sse2362100 0.0 101551
12:000se2273100 0.1 1015449
15:00−1nne3490100 0.8 1014431
18:00−2ene3691100 0.5 1015274
21:00−2ne2587100 0.5 1015153
23 january, sun
sun2300:00−2nne3689100 0.0 1015317
03:00−2nne3688100 0.0 1015422
06:00−3nne4880100 0.1 1014484
09:00−3nne4782100 0.1 1015527
12:00−2nne5775100 0.3 1015717
15:00−2nne6777100 0.4 1015770
18:00−3n4989100 0.4 1016595
21:00−3n3892100 0.9 1018489
24 january, mon
mon2400:00−4n379499 0.3 1018495
03:00−4n3793100 0.5 1019500
06:00−4nw359399 0.3 1020429
09:00−4wnw2493100 0.5 1022303
12:00−3wnw4580100 0.2 1022768
15:00−2wnw4572100 0.3 1022911
18:00−3w2484100 0.1 1024157
21:00−4ssw2390100 0.1 102580
25 january, tue
tue2500:00−4ssw2496100 0.3 1025168
03:00−4s249698 0.7 1025128
06:00−5sse349195 0.1 102561
09:00−3s2481100 0.1 1025130
12:000ssw346868 0.0 1025764
15:00+1sw336584 0.0 1023899
18:00−4sse22846 0.0 102311
21:00−4se2283100 0.0 102221